This demonstration page uses our WeatherBlox Daily Observations layout. Learn more.

Hourly Observations for December 27, 2017

Temp ( °F °C ) Dew Point ( °F °C ) Humidity (%) Winds ( mph kmh ) Pressure ( in mb ) Visibility ( mi km ) Precip ( " mm )
12:15 am 00:15 Clear N/A N/A N/A Calm N/A 10 16.09344 0 0
12:35 am 00:35 Hazy N/A N/A N/A Calm N/A 4 6.437376 0 0
12:55 am 00:55 Clear with Mist and Fog N/A N/A N/A E 3 6 N/A 2.5 4.02336 0 0
1:15 am 01:15 Clear N/A N/A N/A Calm N/A 10 16.09344 0 0
1:35 am 01:35 Partly Cloudy N/A N/A N/A Calm N/A 10 16.09344 0 0
1:55 am 01:55 Partly Cloudy N/A N/A N/A Calm N/A 10 16.09344 0 0
2:15 am 02:15 Partly Cloudy N/A N/A N/A Calm N/A 10 16.09344 0 0
2:35 am 02:35 Mostly Cloudy N/A N/A N/A Calm N/A 10 16.09344 0 0
2:55 am 02:55 Cloudy N/A N/A N/A Calm N/A 10 16.09344 0 0
3:15 am 03:15 Cloudy N/A N/A N/A SSE 3 6 N/A 10 16.09344 0 0
3:35 am 03:35 Cloudy N/A N/A N/A SSE 3 6 N/A 10 16.09344 0 0
3:55 am 03:55 Cloudy N/A N/A N/A SSE 5 7 N/A 10 16.09344 0 0
4:15 am 04:15 Cloudy N/A N/A N/A SSE 6 9 N/A 10 16.09344 0 0
4:35 am 04:35 Cloudy N/A N/A N/A S 8 13 N/A 10 16.09344 0 0
4:55 am 04:55 Cloudy N/A N/A N/A S 10 17 N/A 10 16.09344 0 0
5:15 am 05:15 Cloudy N/A N/A N/A S 12 19 N/A 10 16.09344 0 0
5:35 am 05:35 Cloudy N/A N/A N/A S 15 24 N/A 10 16.09344 0 0
5:55 am 05:55 Cloudy N/A N/A N/A S 15 24 N/A 10 16.09344 0 0
6:15 am 06:15 Cloudy N/A N/A N/A S 14 22 N/A 10 16.09344 0 0
6:35 am 06:35 Cloudy N/A N/A N/A S 16 26 N/A 10 16.09344 0 0
6:55 am 06:55 Cloudy N/A N/A N/A S 14 22 N/A 10 16.09344 0 0
7:15 am 07:15 Cloudy N/A N/A N/A S 15 24 N/A 10 16.09344 0 0
7:35 am 07:35 Cloudy N/A N/A N/A S 16 26 N/A 10 16.09344 0 0
7:55 am 07:55 Cloudy 14 -10.1 11 -11.6 89 89 S 16 26 30.68 1039 10 16.09344 0 0
8:15 am 08:15 Sunny 7 -13.7 4 -15.7 85 85 S 16 26 30.68 1039 10 16.09344 0 0
8:35 am 08:35 Cloudy 7 -13.7 4 -15.8 84 84 SSE 14 22 30.68 1039 10 16.09344 0 0
8:55 am 08:55 Cloudy 8 -13.6 4 -15.8 84 84 SSE 15 24 30.68 1039 10 16.09344 0 0
9:15 am 09:15 Cloudy 8 -13.4 3 -15.9 82 82 SSE 15 24 30.68 1039 10 16.09344 0 0
9:35 am 09:35 Cloudy 8 -13.2 4 -15.8 81 81 SSE 14 22 30.68 1039 10 16.09344 0 0
9:55 am 09:55 Cloudy 9 -13 3 -16 78 78 SSE 15 24 30.68 1039 10 16.09344 0 0
10:15 am 10:15 Cloudy 9 -12.7 4 -15.7 78 78 SSE 14 22 30.68 1039 10 16.09344 0 0
10:35 am 10:35 Cloudy 9 -12.7 4 -15.7 78 78 SSE 16 26 30.68 1039 10 16.09344 0 0
10:55 am 10:55 Cloudy 9 -12.6 4 -15.8 77 77 SSE 15 24 30.65 1038 10 16.09344 0 0
11:15 am 11:15 Cloudy 10 -12.5 4 -15.8 77 77 SSE 17 28 30.65 1038 10 16.09344 0 0
11:40 am 11:40 Cloudy 10 -12.5 3 -16.1 75 75 SSE 17 28 30.62 1037 10 16.09344 0 0
11:55 am 11:55 Cloudy 10 -12.5 3 -16.2 74 74 SSE 16 26 30.62 1037 10 16.09344 0 0
12:15 pm 12:15 Cloudy 10 -12.2 3 -16 74 74 SSE 18 30 30.62 1037 10 16.09344 0 0
12:35 pm 12:35 Cloudy 10 -12.1 4 -15.7 75 75 SSE 20 31 30.59 1036 10 16.09344 0 0
12:55 pm 12:55 Cloudy 10 -12 4 -15.3 77 77 SSE 21 33 30.56 1035 7 11.265408 0 0
1:15 pm 13:15 Cloudy with Haze 11 -11.8 5 -15.1 77 77 SSE 20 31 30.56 1035 5 8.04672 0 0
1:35 pm 13:35 Cloudy with Haze 11 -11.6 5 -14.9 77 77 SSE 18 30 30.56 1035 5 8.04672 0 0
1:55 pm 13:55 Cloudy with Haze 11 -11.5 6 -14.6 78 78 SSE 16 26 30.56 1035 4 6.437376 0 0
2:15 pm 14:15 Windy with Snow Likely 11 -11.5 6 -14.5 79 79 SSE 21 33 30.53 1034 5 8.04672 0 0
2:35 pm 14:35 Cloudy with Haze 12 -11.1 6 -14.2 78 78 SSE 22 35 30.53 1034 5 8.04672 0 0
2:55 pm 14:55 Cloudy with Haze 12 -11 7 -14 79 79 SSE 21 33 30.48 1032 5 8.04672 0 0
3:15 pm 15:15 Cloudy with Light Snow 13 -10.8 7 -13.8 79 79 SSE 17 28 30.48 1032 4 6.437376 0 0
3:35 pm 15:35 Cloudy with Light Snow 13 -10.5 8 -13.5 79 79 SSE 18 30 30.5 1033 4 6.437376 0 0
3:55 pm 15:55 Cloudy 13 -10.3 8 -13.4 78 78 SSE 16 26 30.48 1032 10 16.09344 0 0
4:15 pm 16:15 Cloudy 13 -10.5 8 -13.5 79 79 SSE 16 26 30.48 1032 7 11.265408 0 0
4:35 pm 16:35 Cloudy 13 -10.5 8 -13.6 78 78 SSE 13 20 30.5 1033 10 16.09344 0 0
4:55 pm 16:55 Cloudy 13 -10.5 8 -13.6 78 78 SSE 16 26 30.48 1032 10 16.09344 0 0
5:15 pm 17:15 Cloudy 13 -10.5 8 -13.6 78 78 SSE 13 20 30.48 1032 10 16.09344 0 0
5:35 pm 17:35 Cloudy 13 -10.5 8 -13.6 78 78 SSE 18 30 30.45 1031 10 16.09344 0 0
5:55 pm 17:55 Cloudy 14 -10.2 8 -13.5 77 77 SSE 13 20 30.48 1032 10 16.09344 0 0
6:15 pm 18:15 Cloudy 14 -10 8 -13.5 76 76 SSE 10 17 30.48 1032 10 16.09344 0 0
6:35 pm 18:35 Cloudy 12 -11.1 7 -14 79 79 SE 13 20 30.48 1032 10 16.09344 0 0
6:55 pm 18:55 Cloudy 11 -11.5 6 -14.2 81 81 SSE 15 24 30.5 1033 10 16.09344 0 0
7:15 pm 19:15 Cloudy 11 -11.6 6 -14.5 79 79 SSE 14 22 30.5 1033 10 16.09344 0 0
7:35 pm 19:35 Mostly Cloudy 10 -12 5 -14.8 80 80 SSE 14 22 30.5 1033 10 16.09344 0 0
7:55 pm 19:55 Partly Cloudy 10 -12.2 5 -15.1 79 79 SE 12 19 30.5 1033 10 16.09344 0 0
8:15 pm 20:15 Clear 9 -12.6 4 -15.5 79 79 SE 13 20 30.5 1033 10 16.09344 0 0
8:35 pm 20:35 Clear 9 -13 4 -15.8 80 80 SSE 12 19 30.48 1032 10 16.09344 0 0
8:55 pm 20:55 Clear 9 -13 3 -16 78 78 SE 9 15 30.5 1033 10 16.09344 0 0
9:15 pm 21:15 Clear 8 -13.2 3 -16.1 79 79 SSE 10 17 30.48 1032 10 16.09344 0 0
9:35 pm 21:35 Clear 8 -13.3 3 -16.2 79 79 SSE 9 15 30.48 1032 10 16.09344 0 0
9:55 pm 21:55 Clear 8 -13.5 3 -16.2 80 80 SE 8 13 30.48 1032 10 16.09344 0 0
10:15 pm 22:15 Clear 8 -13.2 3 -16.1 79 79 SE 10 17 30.48 1032 10 16.09344 0 0
10:35 pm 22:35 Clear 9 -13 4 -15.8 80 80 SSE 10 17 30.48 1032 10 16.09344 0 0
10:55 pm 22:55 Clear 9 -12.6 4 -15.5 79 79 SSE 10 17 30.48 1032 10 16.09344 0 0
11:15 pm 23:15 Clear 10 -12.2 5 -15.2 79 79 SSE 12 19 30.45 1031 10 16.09344 0 0
11:35 pm 23:35 Partly Cloudy 11 -11.7 6 -14.7 79 79 SSE 12 19 30.42 1030 10 16.09344 0 0
11:55 pm 23:55 Mostly Cloudy 12 -11 6 -14.2 78 78 SSE 8 13 30.42 1030 10 16.09344 0 0

Powered by AerisWeather